| time (UTC) | temp C | wind direction | speed KPH | gust KPH | rain 1hr cm | rain 24hr cm | rain mn cm | humidity % | barometer mb |
| 20260507041029 | 12 | 34 | 1.6 | 1.6 | 0.00 | 0.00 | 0.00 | 84 | 1018.2 |
| 20260507040348 | 13 | 35 | 1.6 | 1.6 | 0.00 | 0.00 | 0.00 | 83 | 1018.2 |
| 20260507035708 | 13 | 34 | 1.6 | 1.6 | 0.00 | 0.00 | 0.00 | 82 | 1018.2 |
| 20260507034918 | 13 | 337 | 1.6 | 1.6 | 0.00 | 0.00 | 0.00 | 82 | 1018.2 |
| 20260507034238 | 13 | 36 | 0.0 | 1.6 | 0.00 | 0.00 | 0.00 | 81 | 1018.2 |
| 20260507033558 | 13 | 36 | 1.6 | 1.6 | 0.00 | 0.00 | 0.00 | 80 | 1017.8 |
| 20260507032918 | 13 | 34 | 1.6 | 0.0 | 0.00 | 0.00 | 0.00 | 79 | 1017.8 |
| 20260507032127 | 14 | 35 | 1.6 | 3.2 | 0.00 | 0.00 | 0.00 | 78 | 1017.8 |
| 20260507031448 | 14 | 23 | 1.6 | 3.2 | 0.00 | 0.00 | 0.00 | 78 | 1017.8 |
| 20260507030807 | 15 | 34 | 1.6 | 3.2 | 0.00 | 0.00 | 0.00 | 77 | 1017.8 |
| 20260507030127 | 15 | 40 | 1.6 | 6.4 | 0.00 | 0.00 | 0.00 | 76 | 1017.8 |
| 20260507025447 | 15 | 88 | 1.6 | 8.0 | 0.00 | 0.00 | 0.00 | 75 | 1017.8 |
| 20260507024807 | 16 | 56 | 3.2 | 8.0 | 0.00 | 0.00 | 0.00 | 73 | 1017.8 |
| 20260507024127 | 16 | 47 | 3.2 | 6.4 | 0.00 | 0.00 | 0.00 | 72 | 1017.8 |
| 20260507023447 | 16 | 62 | 3.2 | 8.0 | 0.00 | 0.00 | 0.00 | 71 | 1017.8 |
| 20260507022808 | 17 | 23 | 1.6 | 3.2 | 0.00 | 0.00 | 0.00 | 70 | 1017.8 |
| 20260507021800 | 17 | 33 | 1.6 | 1.6 | 0.00 | 0.00 | 0.00 | 68 | 1017.5 |
| 20260507021013 | 17 | 21 | 3.2 | 6.4 | 0.00 | 0.00 | 0.00 | 67 | 1017.5 |
| 20260507020333 | 17 | 44 | 1.6 | 4.8 | 0.00 | 0.00 | 0.00 | 66 | 1017.5 |
| 20260507015653 | 17 | 19 | 1.6 | 6.4 | 0.00 | 0.00 | 0.00 | 65 | 1017.5 |
| 20260507015013 | 18 | 74 | 1.6 | 6.4 | 0.00 | 0.00 | 0.00 | 64 | 1017.5 |
| 20260507014333 | 18 | 50 | 1.6 | 4.8 | 0.00 | 0.00 | 0.00 | 64 | 1017.5 |
| 20260507013653 | 18 | 21 | 1.6 | 3.2 | 0.00 | 0.00 | 0.00 | 62 | 1017.5 |
| 20260507013013 | 19 | 358 | 1.6 | 1.6 | 0.00 | 0.00 | 0.00 | 61 | 1017.5 |
| 20260507012223 | 19 | 267 | 1.6 | 4.8 | 0.00 | 0.00 | 0.00 | 60 | 1017.5 |
| 20260507011543 | 19 | 53 | 1.6 | 8.0 | 0.00 | 0.00 | 0.00 | 60 | 1017.5 |
| 20260507010903 | 20 | 255 | 4.8 | 3.2 | 0.00 | 0.00 | 0.00 | 58 | 1017.5 |
| 20260507010113 | 20 | 248 | 3.2 | 17.7 | 0.00 | 0.00 | 0.00 | 56 | 1017.5 |
| 20260507005433 | 20 | 32 | 4.8 | 43.5 | 0.00 | 0.00 | 0.00 | 57 | 1017.5 |
| 20260507004753 | 21 | 187 | 8.0 | 43.5 | 0.00 | 0.00 | 0.00 | 55 | 1017.5 |
| 20260507004113 | 21 | 80 | 17.7 | 40.2 | 0.00 | 0.00 | 0.00 | 54 | 1017.5 |
| 20260507003433 | 21 | 80 | 12.9 | 35.4 | 0.00 | 0.00 | 0.00 | 55 | 1017.5 |
| 20260507002753 | 21 | 68 | 12.9 | 43.5 | 0.00 | 0.00 | 0.00 | 54 | 1017.5 |
| 20260507002113 | 21 | 70 | 17.7 | 43.5 | 0.00 | 0.00 | 0.00 | 53 | 1017.5 |
| 20260507001433 | 22 | 84 | 12.9 | 32.2 | 0.00 | 0.00 | 0.00 | 53 | 1017.5 |
| 20260507000753 | 21 | 76 | 12.9 | 35.4 | 0.00 | 0.00 | 0.00 | 53 | 1017.5 |
| 20260507000113 | 21 | 73 | 11.3 | 35.4 | 0.00 | 0.00 | 0.00 | 54 | 1017.5 |
| 20260506235433 | 22 | 79 | 11.3 | 41.8 | 0.00 | 0.00 | 0.00 | 52 | 1017.8 |
| 20260506234753 | 22 | 92 | 14.5 | 45.1 | 0.00 | 0.00 | 0.00 | 54 | 1017.8 |
| 20260506234113 | 22 | 72 | 19.3 | 45.1 | 0.00 | 0.00 | 0.00 | 52 | 1017.8 |
| 20260506233432 | 22 | 65 | 14.5 | 35.4 | 0.00 | 0.00 | 0.00 | 51 | 1017.8 |
| 20260506232753 | 22 | 81 | 9.7 | 41.8 | 0.00 | 0.00 | 0.00 | 53 | 1017.8 |
| 20260506232112 | 21 | 74 | 14.5 | 30.6 | 0.00 | 0.00 | 0.00 | 54 | 1017.8 |
| 20260506231433 | 21 | 74 | 12.9 | 32.2 | 0.00 | 0.00 | 0.00 | 52 | 1017.8 |
| 20260506230753 | 21 | 71 | 12.9 | 35.4 | 0.00 | 0.00 | 0.00 | 51 | 1017.8 |
| 20260506230113 | 22 | 81 | 14.5 | 43.5 | 0.00 | 0.00 | 0.00 | 50 | 1017.8 |
| 20260506225432 | 21 | 80 | 11.3 | 43.5 | 0.00 | 0.00 | 0.00 | 52 | 1017.8 |
| 20260506224752 | 21 | 7 | 19.3 | 19.3 | 0.00 | 0.00 | 0.00 | 55 | 1018.2 |
| 20260506224002 | 20 | 57 | 11.3 | 25.7 | 0.00 | 0.00 | 0.00 | 53 | 1018.2 |
| 20260506223323 | 21 | 60 | 9.7 | 9.7 | 0.00 | 0.00 | 0.00 | 52 | 1018.2 |
| 20260506222534 | 21 | 80 | 14.5 | 40.2 | 0.00 | 0.00 | 0.00 | 51 | 1018.5 |
| 20260506221854 | 21 | 74 | 14.5 | 40.2 | 0.00 | 0.00 | 0.00 | 53 | 1018.5 |
| 20260506221214 | 21 | 80 | 11.3 | 43.5 | 0.00 | 0.00 | 0.00 | 49 | 1018.5 |
| 20260506220534 | 22 | 72 | 12.9 | 48.3 | 0.00 | 0.00 | 0.00 | 50 | 1018.9 |
| 20260506215854 | 21 | 75 | 19.3 | 48.3 | 0.00 | 0.00 | 0.00 | 50 | 1018.9 |
| 20260506215214 | 22 | 74 | 12.9 | 40.2 | 0.00 | 0.00 | 0.00 | 50 | 1018.9 |
| 20260506214534 | 22 | 94 | 17.7 | 40.2 | 0.00 | 0.00 | 0.00 | 49 | 1018.9 |
| 20260506213854 | 22 | 69 | 14.5 | 40.2 | 0.00 | 0.00 | 0.00 | 50 | 1018.9 |
| 20260506213215 | 22 | 81 | 12.9 | 38.6 | 0.00 | 0.00 | 0.00 | 49 | 1018.9 |
| 20260506212535 | 22 | 80 | 12.9 | 35.4 | 0.00 | 0.00 | 0.00 | 50 | 1018.9 |
| 20260506211855 | 22 | 79 | 12.9 | 38.6 | 0.00 | 0.00 | 0.00 | 48 | 1018.9 |
| 20260506211215 | 21 | 83 | 11.3 | 38.6 | 0.00 | 0.00 | 0.00 | 49 | 1018.9 |
| 20260506210535 | 21 | 75 | 14.5 | 45.1 | 0.00 | 0.00 | 0.00 | 53 | 1018.9 |
| 20260506205855 | 21 | 221 | 33.8 | 45.1 | 0.00 | 0.00 | 0.00 | 50 | 1018.9 |
| 20260506205215 | 21 | 48 | 19.3 | 9.7 | 0.00 | 0.00 | 0.00 | 52 | 1019.2 |
| 20260506204427 | 21 | 93 | 17.7 | 43.5 | 0.00 | 0.00 | 0.00 | 51 | 1019.2 |
| 20260506203747 | 21 | 82 | 11.3 | 48.3 | 0.00 | 0.00 | 0.00 | 50 | 1019.2 |
| 20260506203108 | 20 | 50 | 24.1 | 11.3 | 0.00 | 0.00 | 0.00 | 54 | 1019.2 |
| 20260506202319 | 20 | 46 | 9.7 | 43.5 | 0.00 | 0.00 | 0.00 | 52 | 1019.2 |
| 20260506201639 | 20 | 4 | 6.4 | 22.5 | 0.00 | 0.00 | 0.00 | 54 | 1019.6 |
| 20260506200959 | 20 | 0 | 3.2 | 20.9 | 0.00 | 0.00 | 0.00 | 54 | 1019.6 |
| 20260506200319 | 20 | 25 | 8.0 | 3.2 | 0.00 | 0.00 | 0.00 | 52 | 1019.6 |
| 20260506195531 | 20 | 43 | 12.9 | 41.8 | 0.00 | 0.00 | 0.00 | 54 | 1019.9 |
| 20260506194851 | 20 | 50 | 12.9 | 41.8 | 0.00 | 0.00 | 0.00 | 57 | 1019.9 |
| 20260506194211 | 20 | 47 | 19.3 | 37.0 | 0.00 | 0.00 | 0.00 | 56 | 1019.9 |
| 20260506193531 | 20 | 67 | 17.7 | 43.5 | 0.00 | 0.00 | 0.00 | 55 | 1019.9 |
| 20260506192851 | 20 | 45 | 20.9 | 41.8 | 0.00 | 0.00 | 0.00 | 56 | 1019.9 |
| 20260506192210 | 20 | 57 | 14.5 | 43.5 | 0.00 | 0.00 | 0.00 | 55 | 1019.9 |
| 20260506191530 | 20 | 65 | 20.9 | 43.5 | 0.00 | 0.00 | 0.00 | 56 | 1019.9 |
| 20260506190851 | 20 | 49 | 17.7 | 43.5 | 0.00 | 0.00 | 0.00 | 56 | 1019.9 |
| 20260506190211 | 20 | 59 | 19.3 | 43.5 | 0.00 | 0.00 | 0.00 | 58 | 1020.3 |
| 20260506185531 | 19 | 26 | 16.1 | 29.0 | 0.00 | 0.00 | 0.00 | 58 | 1019.9 |
| 20260506184742 | 20 | 57 | 17.7 | 38.6 | 0.00 | 0.00 | 0.00 | 58 | 1020.3 |
| 20260506184102 | 19 | 31 | 8.0 | 49.9 | 0.00 | 0.00 | 0.00 | 58 | 1020.3 |
| 20260506183421 | 20 | 35 | 16.1 | 49.9 | 0.00 | 0.00 | 0.00 | 58 | 1020.3 |
| 20260506182742 | 20 | 71 | 17.7 | 45.1 | 0.00 | 0.00 | 0.00 | 55 | 1020.3 |
| 20260506182101 | 20 | 49 | 16.1 | 14.5 | 0.00 | 0.00 | 0.00 | 58 | 1020.3 |
| 20260506181310 | 19 | 73 | 16.1 | 35.4 | 0.00 | 0.00 | 0.00 | 59 | 1020.3 |
| 20260506180630 | 19 | 59 | 19.3 | 24.1 | 0.00 | 0.00 | 0.00 | 59 | 1020.3 |
| 20260506175841 | 19 | 46 | 11.3 | 45.1 | 0.00 | 0.00 | 0.00 | 58 | 1020.3 |
| 20260506175202 | 18 | 60 | 24.1 | 45.1 | 0.00 | 0.00 | 0.00 | 60 | 1020.3 |
| 20260506174522 | 18 | 49 | 8.0 | 14.5 | 0.00 | 0.00 | 0.00 | 60 | 1020.3 |
| 20260506173732 | 18 | 78 | 14.5 | 41.8 | 0.00 | 0.00 | 0.00 | 60 | 1020.3 |
| 20260506173052 | 18 | 350 | 17.7 | 16.1 | 0.00 | 0.00 | 0.00 | 60 | 1020.3 |
| 20260506172307 | 18 | 60 | 17.7 | 46.7 | 0.00 | 0.00 | 0.00 | 61 | 1020.3 |
| 20260506171624 | 17 | 38 | 19.3 | 43.5 | 0.00 | 0.00 | 0.00 | 62 | 1020.3 |
| 20260506170944 | 17 | 62 | 17.7 | 32.2 | 0.00 | 0.00 | 0.00 | 62 | 1020.3 |
| 20260506170122 | 17 | 34 | 11.3 | 45.1 | 0.00 | 0.00 | 0.00 | 64 | 1020.3 |
| 20260506165442 | 17 | 17 | 22.5 | 14.5 | 0.00 | 0.00 | 0.00 | 64 | 1020.3 |
| 20260506164652 | 16 | 19 | 11.3 | 33.8 | 0.00 | 0.00 | 0.00 | 66 | 1020.3 |
| 20260506164012 | 16 | 59 | 8.0 | 43.5 | 0.00 | 0.00 | 0.00 | 67 | 1020.3 |
| 20260506163332 | 16 | 33 | 16.1 | 35.4 | 0.00 | 0.00 | 0.00 | 66 | 1020.3 |
| 20260506162652 | 16 | 15 | 14.5 | 4.8 | 0.00 | 0.00 | 0.00 | 67 | 1020.3 |
| 20260506161905 | 15 | 13 | 12.9 | 35.4 | 0.00 | 0.00 | 0.00 | 69 | 1020.3 |
| 20260506161225 | 15 | 60 | 9.7 | 3.2 | 0.00 | 0.00 | 0.00 | 69 | 1020.3 |
| 20260506160435 | 15 | 29 | 4.8 | 14.5 | 0.00 | 0.00 | 0.00 | 72 | 1020.3 |
| 20260506155755 | 15 | 64 | 4.8 | 8.0 | 0.00 | 0.00 | 0.00 | 71 | 1020.3 |
| 20260506155006 | 15 | 32 | 3.2 | 17.7 | 0.00 | 0.00 | 0.00 | 74 | 1020.3 |
| 20260506154326 | 14 | 46 | 3.2 | 9.7 | 0.00 | 0.00 | 0.00 | 73 | 1020.3 |
| 20260506153646 | 14 | 72 | 3.2 | 16.1 | 0.00 | 0.00 | 0.00 | 74 | 1020.3 |
| 20260506153006 | 15 | 64 | 4.8 | 16.1 | 0.00 | 0.00 | 0.00 | 72 | 1020.3 |
| 20260506152326 | 14 | 29 | 1.6 | 9.7 | 0.00 | 0.00 | 0.00 | 72 | 1020.3 |
| 20260506151646 | 15 | 24 | 1.6 | 8.0 | 0.00 | 0.00 | 0.00 | 72 | 1020.3 |
| 20260506151006 | 15 | 34 | 1.6 | 8.0 | 0.00 | 0.00 | 0.00 | 71 | 1020.3 |
| 20260506150326 | 15 | 42 | 3.2 | 14.5 | 0.00 | 0.00 | 0.00 | 72 | 1020.3 |
| 20260506145646 | 14 | 30 | 4.8 | 14.5 | 0.00 | 0.00 | 0.00 | 74 | 1020.3 |
| 20260506145006 | 14 | 28 | 1.6 | 19.3 | 0.00 | 0.00 | 0.00 | 74 | 1019.9 |
| 20260506144326 | 14 | 39 | 3.2 | 19.3 | 0.00 | 0.00 | 0.00 | 75 | 1019.9 |
| 20260506143646 | 13 | 30 | 3.2 | 9.7 | 0.00 | 0.00 | 0.00 | 76 | 1019.9 |
| 20260506143006 | 13 | 37 | 3.2 | 8.0 | 0.00 | 0.00 | 0.00 | 78 | 1019.9 |
| 20260506142326 | 13 | 40 | 1.6 | 8.0 | 0.00 | 0.00 | 0.00 | 81 | 1019.9 |
| 20260506141646 | 12 | 45 | 1.6 | 8.0 | 0.00 | 0.00 | 0.00 | 82 | 1019.9 |
| 20260506141006 | 12 | 30 | 1.6 | 3.2 | 0.00 | 0.00 | 0.00 | 84 | 1019.6 |
| 20260506140326 | 12 | 51 | 1.6 | 3.2 | 0.00 | 0.00 | 0.00 | 84 | 1019.6 |
| 20260506135646 | 11 | 47 | 1.6 | 3.2 | 0.00 | 0.00 | 0.00 | 84 | 1019.6 |
| 20260506135007 | 11 | 62 | 1.6 | 1.6 | 0.00 | 0.00 | 0.00 | 84 | 1019.6 |
| 20260506134327 | 11 | 21 | 0.0 | 0.0 | 0.00 | 0.00 | 0.00 | 83 | 1019.6 |
| 20260506133538 | 11 | 242 | 1.6 | 3.2 | 0.00 | 0.00 | 0.00 | 83 | 1019.6 |
| 20260506132857 | 11 | 308 | 1.6 | 3.2 | 0.00 | 0.00 | 0.00 | 83 | 1019.6 |
| 20260506132218 | 11 | 117 | 1.6 | 3.2 | 0.00 | 0.00 | 0.00 | 83 | 1019.6 |
| 20260506131538 | 11 | 152 | 1.6 | 3.2 | 0.00 | 0.00 | 0.00 | 83 | 1019.2 |
| 20260506130858 | 11 | 56 | 1.6 | 3.2 | 0.00 | 0.00 | 0.00 | 82 | 1019.2 |
| 20260506130218 | 11 | 42 | 1.6 | 4.8 | 0.00 | 0.00 | 0.00 | 82 | 1019.2 |
| 20260506125538 | 11 | 172 | 1.6 | 4.8 | 0.00 | 0.00 | 0.00 | 82 | 1019.2 |
| 20260506124858 | 11 | 96 | 1.6 | 4.8 | 0.00 | 0.00 | 0.00 | 82 | 1019.2 |
| 20260506124217 | 11 | 47 | 1.6 | 3.2 | 0.00 | 0.00 | 0.00 | 82 | 1019.2 |
| 20260506123537 | 11 | 190 | 1.6 | 3.2 | 0.00 | 0.00 | 0.00 | 82 | 1018.9 |
| 20260506122857 | 11 | 264 | 1.6 | 3.2 | 0.00 | 0.00 | 0.00 | 82 | 1019.2 |
| 20260506122218 | 11 | 39 | 1.6 | 1.6 | 0.00 | 0.00 | 0.00 | 82 | 1018.9 |
| 20260506121538 | 11 | 41 | 0.0 | 1.6 | 0.00 | 0.00 | 0.00 | 82 | 1018.9 |
| 20260506120713 | 11 | 43 | 1.6 | 4.8 | 0.00 | 0.00 | 0.00 | 82 | 1018.9 |
| 20260506120033 | 11 | 50 | 0.0 | 1.6 | 0.00 | 0.00 | 0.00 | 82 | 1018.9 |
| 20260506115245 | 11 | 40 | 1.6 | 1.6 | 0.00 | 0.00 | 0.00 | 82 | 1018.9 |
| 20260506114605 | 11 | 49 | 1.6 | 1.6 | 0.00 | 0.00 | 0.00 | 82 | 1018.9 |
| 20260506113557 | 11 | 43 | 1.6 | 1.6 | 0.00 | 0.00 | 0.00 | 82 | 1018.9 |
| 20260506112809 | 11 | 41 | 1.6 | 1.6 | 0.00 | 0.00 | 0.00 | 82 | 1018.9 |
| 20260506112129 | 11 | 42 | 1.6 | 1.6 | 0.00 | 0.00 | 0.00 | 82 | 1018.9 |
| 20260506111449 | 11 | 88 | 1.6 | 3.2 | 0.00 | 0.00 | 0.00 | 82 | 1018.5 |
| 20260506110809 | 11 | 159 | 1.6 | 1.6 | 0.00 | 0.00 | 0.00 | 82 | 1018.5 |
| 20260506110021 | 11 | 103 | 1.6 | 1.6 | 0.00 | 0.00 | 0.00 | 82 | 1018.5 |
| 20260506105341 | 11 | 152 | 1.6 | 3.2 | 0.00 | 0.00 | 0.00 | 82 | 1018.5 |
| 20260506104701 | 11 | 42 | 1.6 | 3.2 | 0.00 | 0.00 | 0.00 | 81 | 1018.5 |
| 20260506104021 | 11 | 85 | 1.6 | 3.2 | 0.00 | 0.00 | 0.00 | 82 | 1018.5 |
| 20260506103341 | 11 | 89 | 1.6 | 1.6 | 0.00 | 0.00 | 0.00 | 82 | 1018.5 |
| 20260506102701 | 11 | 56 | 1.6 | 1.6 | 0.00 | 0.00 | 0.00 | 82 | 1018.5 |
| 20260506102021 | 11 | 51 | 1.6 | 3.2 | 0.00 | 0.00 | 0.00 | 81 | 1018.5 |
| 20260506101341 | 11 | 76 | 1.6 | 3.2 | 0.00 | 0.00 | 0.00 | 81 | 1018.2 |
| 20260506100702 | 11 | 33 | 0.0 | 3.2 | 0.00 | 0.00 | 0.00 | 81 | 1018.2 |
| 20260506100022 | 11 | 56 | 1.6 | 3.2 | 0.00 | 0.00 | 0.00 | 81 | 1018.2 |
| 20260506095342 | 11 | 93 | 1.6 | 4.8 | 0.00 | 0.00 | 0.00 | 81 | 1018.2 |
| 20260506094702 | 11 | 42 | 1.6 | 4.8 | 0.00 | 0.00 | 0.00 | 81 | 1018.5 |
| 20260506094022 | 11 | 34 | 0.0 | 1.6 | 0.00 | 0.00 | 0.00 | 81 | 1018.2 |
| 20260506093342 | 11 | 42 | 1.6 | 1.6 | 0.00 | 0.00 | 0.00 | 81 | 1018.5 |
| 20260506092702 | 11 | 39 | 1.6 | 4.8 | 0.00 | 0.00 | 0.00 | 81 | 1018.5 |
| 20260506092022 | 11 | 38 | 1.6 | 8.0 | 0.00 | 0.00 | 0.00 | 81 | 1018.5 |
| 20260506091342 | 11 | 41 | 1.6 | 3.2 | 0.00 | 0.00 | 0.00 | 82 | 1018.5 |
| 20260506090702 | 11 | 51 | 3.2 | 1.6 | 0.00 | 0.00 | 0.00 | 82 | 1018.5 |
| 20260506085656 | 11 | 60 | 1.6 | 3.2 | 0.00 | 0.00 | 0.00 | 82 | 1018.2 |
| 20260506085015 | 11 | 42 | 1.6 | 3.2 | 0.00 | 0.00 | 0.00 | 82 | 1018.2 |
| 20260506084335 | 11 | 56 | 1.6 | 6.4 | 0.00 | 0.00 | 0.00 | 82 | 1018.5 |
| 20260506083655 | 11 | 61 | 1.6 | 1.6 | 0.00 | 0.00 | 0.00 | 82 | 1018.5 |
| 20260506083016 | 11 | 41 | 1.6 | 4.8 | 0.00 | 0.00 | 0.00 | 82 | 1018.5 |
| 20260506082336 | 11 | 47 | 3.2 | 4.8 | 0.00 | 0.00 | 0.00 | 82 | 1018.2 |
| 20260506081655 | 11 | 49 | 1.6 | 4.8 | 0.00 | 0.00 | 0.00 | 81 | 1018.2 |
| 20260506081015 | 11 | 67 | 1.6 | 4.8 | 0.00 | 0.00 | 0.00 | 81 | 1018.2 |
| 20260506080335 | 11 | 49 | 1.6 | 3.2 | 0.00 | 0.00 | 0.00 | 81 | 1018.2 |
| 20260506072907 | 11 | 48 | 1.6 | 3.2 | 0.00 | 0.00 | 0.00 | 81 | 1018.2 |
| 20260506072227 | 11 | 50 | 1.6 | 0.0 | 0.00 | 0.00 | 0.00 | 81 | 1018.2 |
| 20260506071329 | 11 | 49 | 3.2 | 4.8 | 0.00 | 0.00 | 0.00 | 82 | 1018.2 |
| 20260506070649 | 11 | 184 | 1.6 | 4.8 | 0.00 | 0.00 | 0.00 | 82 | 1017.8 |
| 20260506062429 | 11 | 47 | 1.6 | 4.8 | 0.00 | 0.00 | 0.00 | 82 | 1017.8 |
| 20260506061749 | 11 | 62 | 3.2 | 4.8 | 0.00 | 0.00 | 0.00 | 83 | 1017.5 |
| 20260506061109 | 11 | 57 | 1.6 | 3.2 | 0.00 | 0.00 | 0.00 | 83 | 1017.5 |
| 20260506060429 | 11 | 229 | 1.6 | 3.2 | 0.00 | 0.00 | 0.00 | 83 | 1017.5 |
| 20260506050954 | 12 | 54 | 3.2 | 6.4 | 0.00 | 0.00 | 0.00 | 85 | 1017.1 |
| 20260506050314 | 12 | 10 | 3.2 | 8.0 | 0.00 | 0.00 | 0.00 | 85 | 1017.1 |
| 20260506044954 | 12 | 45 | 1.6 | 6.4 | 0.00 | 0.00 | 0.00 | 85 | 1017.1 |
| 20260506044314 | 12 | 326 | 1.6 | 6.4 | 0.00 | 0.00 | 0.00 | 85 | 1017.1 |
| 20260506043525 | 12 | 45 | 1.6 | 4.8 | 0.00 | 0.00 | 0.00 | 85 | 1016.8 |
| 20260506042845 | 12 | 40 | 1.6 | 1.6 | 0.00 | 0.00 | 0.00 | 85 | 1016.8 |
| 20260506042054 | 12 | 65 | 1.6 | 6.4 | 0.00 | 0.00 | 0.00 | 85 | 1016.8 |